EHI
3 3 4 6 10 15 17 18 20 24 30 34 36 36 36 37 35 32 29 26 25 24 28 34 40 43 44 45 46 49 46 37 28 21 12 5 4 5 6 5 3 3 3
3 3 3 5 8 11 12 13 15 20 25 28 29 29 30 31 29 28 26 24 21 20 23 30 33 36 40 41 42 40 37 30 22 18 12 6 4 4 5 4 3 2 2
4 4 3 4 7 9 9 9 12 15 19 20 21 21 22 21 19 20 22 20 16 15 19 24 27 30 33 36 34 28 24 19 15 15 14 11 6 4 4 3 1 0 1
6 5 4 5 8 9 9 10 11 13 14 15 15 16 16 15 14 17 18 17 14 13 15 20 24 26 27 28 25 20 17 14 12 14 16 15 11 5 2 1 0 0 0
6 5 4 5 7 8 9 9 10 10 11 11 12 13 13 13 14 15 16 14 13 13 14 17 20 22 23 22 19 17 16 14 13 13 14 13 10 5 1 0 0 0 0
6 4 2 3 5 6 6 7 8 8 8 7 8 10 11 12 12 12 12 11 11 12 13 13 14 15 17 18 17 16 15 12 11 11 10 8 6 3 1 0 0 0 0
5 3 2 2 2 3 4 4 4 4 4 4 5 8 9 8 7 7 8 8 8 9 9 8 8 8 10 12 13 12 9 7 7 7 6 6 5 2 1 0 0 0 0
5 3 2 1 1 1 2 2 2 1 1 1 2 5 5 5 3 3 4 6 6 6 6 5 3 3 4 6 7 8 6 4 4 3 3 4 4 2 0 0 0 0 0
3 2 1 1 0 0 1 1 1 1 1 0 0 1 2 1 1 1 2 3 4 4 3 2 1 1 2 4 5 5 4 3 1 0 0 1 1 0 0 0 0 0 0
2 1 0 0 0 0 0 0 1 1 1 0 0 0 0 0 0 0 1 1 1 1 1 0 0 0 1 2 3 4 3 1 0 0 0 0 0 0 0 0 0 0 0
2 1 0 0 0 0 0 0 1 1 0 0 0 0 0 0 0 0 0 0 0 0 0 0 0 0 0 1 2 2 2 1 0 0 0 0 0 0 0 0 0 0 0
2 1 0 0 0 0 0 0 0 0 0 0 0 0 0 0 0 0 0 0 0 0 0 0 0 0 0 0 1 1 1 0 0 0 0 0 0 0 0 0 0 0 0
2 1 0 0 0 0 0 0 0 0 0 0 0 0 0 0 0 0 0 0 0 0 0 0 0 0 0 0 0 0 0 0 0 0 0 0 0 0 0 0 0 0 0
2 1 0 0 0 0 0 0 0 0 0 0 0 0 0 0 0 0 0 0 0 0 0 0 0 0 0 0 0 0 0 0 0 0 0 0 0 0 0 0 0 0 0
1 0 0 0 0 0 0 0 0 0 0 0 0 0 0 0 0 0 0 0 0 0 0 0 0 0 0 0 0 0 0 0 0 0 0 0 0 0 0 0 0 0 0
0 0 0 0 0 0 0 0 0 0 0 0 0 0 0 0 0 0 0 0 0 0 0 0 0 0 0 0 0 0 0 0 0 0 0 0 0 0 0 0 0 0 0
0 0 0 0 0 0 0 0 0 0 0 0 0 0 0 0 0 0 0 0 0 0 0 0 0 0 0 0 0 0 0 0 0 0 0 0 0 0 0 0 0 0 0
0 0 0 0 0 0 0 0 0 0 0 0 0 0 0 0 0 0 0 0 0 0 0 0 0 0 0 0 0 0 0 0 0 0 0 0 0 0 0 0 0 0 0
0 0 0 0 0 0 0 0 0 0 0 0 0 0 0 0 0 0 0 0 0 0 0 0 0 0 0 0 0 0 0 0 0 0 0 0 0 0 0 0 0 0 0
0 0 0 0 0 0 0 0 0 0 0 0 0 0 0 0 0 0 0 0 0 0 0 0 0 0 0 0 0 0 0 0 0 0 0 0 0 0 0 0 0 0 0
0 0 0 0 0 0 0 0 0 0 0 0 0 0 0 0 0 0 0 0 0 0 0 0 0 0 0 0 0 0 0 0 0 0 0 0 0 0 0 0 0 0 0
0 0 0 0 0 0 0 0 0 0 0 0 0 0 0 0 0 0 0 0 0 0 0 0 0 0 0 0 0 0 0 0 0 0 0 0 0 0 0 0 0 0 0
0 0 0 0 0 0 0 0 0 0 0 0 0 0 0 0 0 0 0 0 0 0 0 0 0 0 0 0 0 0 0 0 0 0 0 0 0 0 0 0 0 0 0
0 0 0 0 0 0 0 0 0 0 0 0 0 0 0 0 0 0 0 0 0 0 0 0 0 0 0 0 0 0 0 0 0 0 0 0 0 0 0 0 0 0 0
0 0 0 0 0 0 0 0 0 0 0 0 0 0 0 0 0 0 0 0 0 0 0 0 0 0 0 0 0 0 0 0 0 0 0 0 0 0 0 0 0 0 0
0 0 0 0 0 0 0 0 0 0 0 0 0 0 0 0 0 0 0 0 0 0 0 0 0 0 0 0 0 0 0 0 0 0 0 0 0 0 0 0 0 0 0
Wind_Speed
7 8 8 8 8 8 8 7 6 5 3 2 2 2 3 3 2 2 3 4 4 5 6 6 6 7 7 8 8 6 8 6 6 5 4 2 3 3 2 2 3 4 4
6 7 8 8 9 9 8 7 7 6 5 3 3 2 2 2 2 2 2 3 4 4 5 6 5 6 6 7 8 7 6 6 7 5 5 4 3 2 2 3 4 4 4
5 7 8 8 9 9 9 7 8 7 6 5 3 2 2 2 1 1 1 2 2 3 4 5 4 5 5 5 7 8 9 7 7 7 5 6 6 4 3 3 4 5 5
5 6 7 8 9 9 8 7 7 7 7 5 3 3 2 1 1 1 1 1 1 2 2 3 4 4 4 4 6 7 6 8 8 6 6 3 4 6 5 4 4 5 5
5 6 6 7 7 8 7 7 7 7 7 6 5 3 2 1 1 1 0 0 0 1 1 1 2 2 3 4 5 5 6 6 8 6 5 4 3 4 5 6 6 5 4
5 5 5 6 6 7 7 7 8 8 8 8 6 5 4 3 2 2 1 1 1 2 2 1 1 1 1 2 4 4 5 4 6 5 5 5 5 5 4 6 7 6 5
5 5 6 6 7 8 8 8 8 8 8 8 7 7 6 4 4 2 2 2 2 2 4 3 3 2 2 1 1 1 2 3 4 4 4 4 3 4 4 7 7 6 5
6 6 6 6 6 7 8 8 8 8 8 8 7 7 6 4 4 4 3 3 3 3 3 4 3 3 2 1 1 1 1 1 1 1 2 3 3 4 6 7 8 8 4
6 6 6 6 7 7 7 7 7 7 7 7 7 7 7 6 6 5 4 4 4 4 5 5 5 4 4 3 3 3 2 2 2 2 2 2 3 4 5 6 7 8 7
7 6 6 6 6 6 6 6 7 7 7 7 7 6 7 7 6 6 7 6 6 5 5 6 5 5 5 5 4 4 4 4 4 3 4 4 4 5 5 5 4 5 7
7 6 5 5 6 6 6 6 6 7 7 7 7 8 7 7 7 7 7 6 6 6 6 6 6 6 6 5 6 6 5 6 6 5 6 6 7 6 5 5 5 6 7
8 7 6 6 6 6 6 6 6 7 7 7 7 8 7 7 8 8 7 7 7 7 7 7 7 7 7 7 7 7 7 7 8 8 8 9 7 8 7 6 7 7 7
8 7 6 5 5 5 6 6 6 7 7 7 7 8 8 8 8 8 8 8 8 8 8 8 8 8 8 8 8 9 9 9 9 9 10 10 10 9 8 8 8 8 8
8 7 6 6 5 5 5 6 7 7 7 7 8 8 8 8 8 8 8 8 8 9 9 9 9 9 9 9 9 10 10 11 11 11 11 10 10 10 9 8 9 9 10
9 8 7 6 6 6 6 6 6 6 6 7 8 8 7 8 8 8 9 8 9 10 10 10 10 10 9 9 9 10 11 12 12 13 13 13 13 12 9 8 9 9 8
10 9 8 7 6 6 6 6 6 6 6 7 7 7 8 8 8 8 8 9 10 10 10 11 11 11 10 12 13 9 11 11 12 13 12 12 13 15 15 14 12 9 7
10 9 8 7 6 5 5 6 6 6 7 7 7 7 8 8 8 8 9 9 10 10 10 11 11 11 11 12 12 11 10 11 11 11 10 10 10 11 13 13 12 12 11
10 9 8 8 6 6 6 6 6 6 7 7 7 7 7 8 8 8 9 8 8 8 9 10 10 10 10 11 10 8 11 11 11 11 11 10 10 9 8 10 11 10 9
10 9 9 8 7 7 6 7 7 6 7 7 7 7 7 7 8 8 8 7 7 8 8 9 9 10 9 10 9 6 9 10 11 11 11 10 11 8 5 8 9 9 8
10 9 9 9 8 7 6 7 7 7 6 7 7 7 7 7 8 8 8 7 7 8 8 9 9 9 9 10 10 7 7 9 9 10 10 13 10 8 7 7 8 8 7
11 10 9 9 8 7 6 6 7 7 7 7 7 7 7 7 8 8 7 7 7 8 9 9 9 9 8 9 11 11 6 7 8 8 8 8 8 8 8 5 7 5 2
12 11 9 9 8 7 6 7 7 7 7 7 8 7 7 6 7 7 7 7 7 8 8 8 8 7 7 8 9 10 10 7 7 7 8 8 7 7 7 6 4 2 4
11 10 10 10 8 7 7 8 7 6 7 8 8 7 7 6 6 6 7 6 5 5 6 6 7 7 7 7 7 7 7 8 6 7 8 5 3 5 6 5 1 3 0
11 10 11 10 8 7 7 7 7 6 7 8 7 7 7 7 6 4 5 5 4 4 5 6 6 6 6 5 4 5 6 6 6 6 6 4 2 3 4 3 2 2 5
10 9 9 9 9 8 7 7 7 7 7 7 7 7 7 7 6 7 7 6 8 7 5 5 4 5 7 7 8 6 5 5 5 1 4 4 4 4 4 4 4 3 3
11 10 10 10 9 8 8 7 6 7 7 7 6 5 6 5 6 7 8 12 10 9 10 10 8 8 8 6 6 6 5 4 4 3 3 3 3 4 3 3 3 3 3
Wind_Direction
63 47 38 32 30 27 21 14 8 1 342 299 257 237 235 236 222 218 226 236 241 240 236 239 231 229 227 218 208 201 195 186 163 150 139 114 89 89 95 107 111 102 98
68 49 38 32 28 24 17 13 7 360 346 333 299 276 276 257 246 240 226 244 245 250 243 236 231 225 227 220 209 194 198 192 186 179 164 166 155 119 99 112 111 101 98
58 48 36 28 25 23 16 11 6 358 352 339 296 261 235 233 225 240 238 264 265 252 243 242 237 234 231 227 214 206 206 199 199 198 185 181 182 142 126 103 104 109 102
69 50 37 29 23 17 15 14 11 10 5 355 341 310 276 263 290 300 296 297 301 278 247 246 236 236 234 232 224 215 214 204 199 203 214 211 151 158 147 130 108 102 101
81 64 46 33 25 18 18 19 20 22 15 9 6 346 337 329 337 343 347 290 12 328 328 299 261 247 242 236 230 222 216 211 206 196 188 182 164 167 153 150 143 115 94
97 78 62 45 34 28 31 28 26 28 24 19 19 18 19 21 42 30 355 1 41 36 24 360 339 307 275 245 231 223 215 214 213 203 191 174 171 179 154 144 148 133 108
107 86 63 48 37 33 32 31 32 32 29 27 27 26 29 33 41 33 24 24 36 33 24 21 21 5 332 293 243 203 215 208 206 204 192 182 173 161 141 136 138 127 117
106 86 68 54 43 39 34 33 36 37 34 33 33 35 37 37 46 42 40 39 38 34 33 36 35 29 17 15 77 106 116 145 164 169 176 165 160 148 143 143 142 133 125
111 94 78 61 51 43 37 36 39 42 41 42 43 45 47 49 54 53 49 47 43 43 43 46 45 41 38 41 59 73 77 80 86 100 126 136 130 135 134 139 149 144 145
118 99 82 68 59 52 49 46 47 49 49 50 51 54 50 49 52 57 54 51 49 47 49 50 47 47 47 52 59 67 71 85 82 82 92 102 104 108 116 132 135 136 137
127 112 97 81 74 67 62 59 56 56 55 54 55 57 56 54 55 57 56 52 53 52 53 52 51 49 49 56 65 70 74 83 84 86 91 99 106 114 121 124 124 122 121
128 120 107 97 87 77 70 67 63 62 61 62 64 63 60 59 60 62 60 58 58 57 58 60 59 56 56 60 70 75 78 81 84 85 88 94 101 102 105 109 111 112 121
137 128 115 103 93 84 76 73 70 68 68 70 70 67 63 62 62 64 63 62 64 63 61 62 63 61 61 66 71 76 78 79 81 84 89 93 97 99 103 109 111 116 119
144 136 125 115 103 92 82 79 74 72 71 71 71 68 66 67 69 70 67 64 66 68 66 63 64 65 65 67 72 77 79 80 79 79 79 82 89 96 104 105 111 114 119
150 142 132 125 116 105 94 84 80 77 77 78 75 72 73 74 74 73 72 69 67 69 68 67 65 65 64 56 63 77 81 82 83 81 78 76 76 69 75 96 107 116 123
152 145 140 133 123 114 106 99 93 91 89 84 83 82 81 78 76 76 77 75 72 69 67 66 65 62 60 45 45 59 80 82 84 87 89 93 89 83 75 72 72 78 104
154 148 144 137 127 121 115 110 103 99 95 90 86 84 83 82 82 83 81 77 76 75 73 71 71 71 59 47 50 50 75 79 80 82 85 88 93 98 99 95 92 76 63
154 150 147 141 135 127 119 115 112 106 99 93 90 90 89 89 88 87 84 80 78 77 77 77 78 78 62 46 49 54 81 81 81 82 84 87 87 80 90 101 96 93 81
148 144 144 140 136 129 127 122 113 106 101 96 93 92 92 95 96 93 91 88 86 84 83 80 80 79 68 41 32 40 91 86 81 78 75 82 87 59 51 99 101 99 101
140 141 141 139 135 131 134 126 116 109 101 97 93 92 92 93 95 97 97 95 92 89 86 79 77 77 70 42 26 17 91 93 94 91 85 68 64 46 30 90 100 101 101
137 140 141 139 136 136 134 123 115 105 102 101 100 95 93 94 95 97 98 102 99 93 91 89 83 76 70 62 40 26 60 83 91 92 89 76 57 52 37 45 78 75 75
141 144 141 136 134 137 135 124 111 108 110 109 106 102 100 97 97 99 101 102 105 105 102 96 91 87 78 61 57 46 39 32 81 82 85 86 74 67 51 61 67 323 277
144 147 140 133 133 138 133 121 118 121 119 114 108 103 99 94 100 107 110 110 109 106 109 107 101 96 97 97 87 75 59 41 65 74 73 84 113 134 106 93 345 268 136
148 149 142 137 136 136 127 120 121 121 118 114 113 112 109 107 101 96 94 94 92 93 100 97 99 103 100 89 95 119 125 132 120 112 123 140 93 103 101 145 158 69 51
148 146 142 140 138 136 131 129 127 126 121 117 115 115 110 104 97 77 53 58 58 41 49 72 89 89 86 55 25 20 50 50 60 82 137 134 129 118 103 94 82 84 95
145 146 144 142 138 137 132 129 130 131 129 127 127 124 120 115 113 110 96 57 61 64 56 42 38 75 72 71 55 53 48 32 339 309 103 97 91 87 90 94 98 86 60